Regional Weather Roundup
Issued by NWS

Home | Current Version | Previous Version | Text Only | Print | Product List | Glossary On
Versions: 1 2 3 4 5 6 7 8 9 10 11 12 13 14 15 16 17 18 19 20 21 22 23 24 25 26 27 28 29 30 31 32 33 34 35 36 37 38 39 40 41 42 43 44 45 46 47 48 49 50
000
ASUS43 KTOP 242208
RWRKS

WEATHER ROUNDUP FOR KANSAS
NATIONAL WEATHER SERVICE GOODLAND KS
500 PM CDT FRI APR 24 2015

NOTE:  "FAIR" INDICATES FEW OR NO CLOUDS BELOW 12,000 FEET WITH NO
SIGNIFICANT WEATHER AND/OR OBSTRUCTIONS TO VISIBILITY.

KSZ001>006-013>018-027>032-041>047-242300-
NORTHWEST KANSAS

CITY           SKY/WX    TMP DP  RH WIND       PRES   REMARKS
GOODLAND       CLOUDY    63  34  33 S8G17     29.56F
HAYS           PTSUNNY   75  48  38 S15G22    29.42F
HILL CITY      MOSUNNY   73  56  54 NE3       29.47F
RUSSELL        PTSUNNY   75  60  59 E22       29.42F
$$

KSZ061>065-074>080-084>089-242300-
SOUTHWEST KANSAS

CITY           SKY/WX    TMP DP  RH WIND       PRES   REMARKS
DODGE CITY     CLOUDY    70  44  39 W15       29.46F THUNDER
ELKHART          N/A     73  37  27 W16         N/A
GARDEN CITY    CLOUDY    68  40  35 SW26G38   29.48S
GREAT BEND     PTSUNNY   79  54  41 S14G24    29.43F
LIBERAL        PTSUNNY   73  37  27 W16G30    29.49F
$$

KSZ066>073-081>083-090>101-242300-
SOUTHEAST KANSAS

CITY           SKY/WX    TMP DP  RH WIND       PRES   REMARKS
CHANUTE        CLOUDY    70  60  70 S21G35    29.63F
COFFEYVILLE    CLOUDY    68  59  73 S16G24    29.64F
HUTCHINSON     CLOUDY    79  58  48 S18G28    29.49F
MEDICINE LODGE   N/A     79  58  48 S25G37    29.46F
NEWTON         PTSUNNY   72  59  64 S16G22    29.55F
PARSONS        CLOUDY    68  59  73 S16G24    29.63F
WICHITA INTL   PTSUNNY   77  61  57 S23G35    29.51F
WICHITA JABRA  PTSUNNY   75  60  59 S23G33    29.53F
WICHITA MCCONL PTSUNNY   74  61  63 S28G35    29.53F
WINFIELD       CLOUDY    72  62  71 S21G29    29.59F
$$

KSZ007>012-019>026-033>040-048>060-102>105-242300-
NORTHEAST KANSAS

CITY           SKY/WX    TMP DP  RH WIND       PRES   REMARKS
CONCORDIA      PTSUNNY   68  57  68 SE12      29.54F
EMPORIA        CLOUDY    68  59  73 SE13      29.58F
LAWRENCE       CLOUDY    62  53  72 SE12      29.65F
MANHATTAN      CLOUDY    63  56  78 SE12      29.58F
MARYSVILLE     CLOUDY    61  54  77 SE9       29.59F
OLATHE IND     CLOUDY    63  55  75 SE12      29.66F
OLATHE EXE     CLOUDY    62  55  77 SE9       29.65F
SALINA         CLOUDY    72  60  66 E15       29.51F
TOPEKA BILLARD CLOUDY    62  55  77 SE10      29.63F
TOPEKA FORBES  CLOUDY    63  55  75 SE8       29.62F
$$


USA.gov is the U.S. government's official web portal to all federal, state and local government web resources and services.